Weather History for Novato, CA

Change the Weather History Date:

Tuesday, June 4, 2013

  Actual Average (KAPC) Record (KAPC)
Temperature  
Mean Temperature 60 °F 62 °F  
Max Temperature 68 °F 77 °F 86 °F (2002)
Min Temperature 53 °F 48 °F 41 °F (2001)
Degree Days  
Heating Degree Days 4    
Month to date heating degree days  
Since 1 June heating degree days  
Since 1 July heating degree days  
Cooling Degree Days 0    
Month to date cooling degree days  
Year to date cooling degree days  
Since 1 June cooling degree days  
Growing Degree Days 10 (Base 50)    
Moisture  
Dew Point 52 °F    
Average Humidity 80    
Maximum Humidity 100    
Minimum Humidity 56    
Precipitation  
Precipitation 0.00 in - 1.04 in (2011)
Month to date precipitation  
Year to date precipitation  
Since 1 July precipitation  
Sea Level Pressure  
Sea Level Pressure 29.93 in    
Wind  
Wind Speed 7 mph (WNW)    
Max Wind Speed 15 mph    
Max Gust Speed 21 mph    
Visibility 10 miles    
Events      
T = Trace of Precipitation, MM = Missing Value Source: NWS Daily Summary

Daily Weather History Graph

Daily Weather History Graph

Search for Another Location

Airport:

Trip Planner

Search our weather history database for the weather conditions in past years. The results will help you decide how hot, cold, wet, or windy it might be!

Date:

Astronomy

Jun. 04, 2013 Rise Set
Actual Time 5:47 AM PDT 8:29 PM PDT
Civil Twilight 5:16 AM PDT 9:00 PM PDT
Nautical Twilight 4:37 AM PDT 9:39 PM PDT
Astronomical Twilight 3:54 AM PDT 10:23 PM PDT
Moon 3:17 AM PDT (6/4) 5:06 PM PDT (6/4)
Length of Visible Light 15h 44m
Length of Day
14h 41m
Waning Crescent, 13% of the Moon is Illuminated
Jun 4
Waning Crescent
Jun 8
New
Jun 16
First Quarter
Jun 23
Full
Jun 29
Last Quarter

Hourly Weather History & Observations

Time (PDT) Temp. Dew Point Humidity Pressure Visibility Wind Dir Wind Speed Gust Speed Precip Events Conditions
12:15 AM 53.6 °F 53.6 °F 100% 29.88 in 10.0 mi NNW 10.4 mph - N/A   Clear
12:35 AM 53.6 °F 53.6 °F 100% 29.88 in 10.0 mi NNW 8.1 mph - N/A   Clear
12:55 AM 53.6 °F 53.6 °F 100% 29.88 in 10.0 mi NNW 8.1 mph - N/A   Partly Cloudy
1:15 AM 53.6 °F 53.6 °F 100% 29.88 in 10.0 mi NNW 5.8 mph - N/A   Mostly Cloudy
1:35 AM 53.6 °F 53.6 °F 100% 29.88 in 10.0 mi NW 6.9 mph - N/A   Mostly Cloudy
1:55 AM 53.6 °F 53.6 °F 100% 29.88 in 10.0 mi NNW 10.4 mph - N/A   Overcast
2:15 AM 53.6 °F 53.6 °F 100% 29.88 in 10.0 mi NNW 8.1 mph - N/A   Overcast
2:35 AM 53.6 °F 53.6 °F 100% 29.88 in 10.0 mi NNW 8.1 mph - N/A   Overcast
2:55 AM 53.6 °F 53.6 °F 100% 29.88 in 10.0 mi NNW 6.9 mph - N/A   Overcast
3:15 AM 55.4 °F 53.6 °F 94% 29.88 in 10.0 mi NW 3.5 mph - N/A   Overcast
3:35 AM 55.4 °F 53.6 °F 94% 29.88 in 10.0 mi WNW 3.5 mph - N/A   Overcast
3:55 AM 53.6 °F 53.6 °F 100% 29.88 in 10.0 mi NNW 5.8 mph - N/A   Overcast
4:15 AM 55.4 °F 53.6 °F 94% 29.88 in 10.0 mi NNW 5.8 mph - N/A   Overcast
4:35 AM 53.6 °F 53.6 °F 100% 29.88 in 10.0 mi NNW 4.6 mph - N/A   Overcast
4:55 AM 53.6 °F 53.6 °F 100% 29.88 in 10.0 mi NW 4.6 mph - N/A   Unknown
5:15 AM 53.6 °F 53.6 °F 100% 29.88 in 10.0 mi NNW 6.9 mph - N/A   Unknown
5:35 AM 53.6 °F 53.6 °F 100% 29.89 in 10.0 mi NNW 4.6 mph - N/A   Unknown
5:55 AM 53.6 °F 53.6 °F 100% 29.90 in 10.0 mi NNW 6.9 mph - N/A   Unknown
6:15 AM 53.6 °F 53.6 °F 100% 29.90 in 10.0 mi NNW 5.8 mph - N/A   Unknown
6:35 AM 55.4 °F 53.6 °F 94% 29.91 in 10.0 mi WSW 5.8 mph - N/A   Unknown
6:55 AM 55.4 °F 53.6 °F 94% 29.91 in 10.0 mi West 6.9 mph - N/A   Unknown
7:15 AM 55.4 °F 53.6 °F 94% 29.91 in 10.0 mi Calm Calm - N/A   Unknown
7:35 AM 55.4 °F 53.6 °F 94% 29.92 in 10.0 mi Calm Calm - N/A   Unknown
7:55 AM 55.4 °F 53.6 °F 94% 29.93 in 10.0 mi Calm Calm - N/A   Unknown
8:15 AM 57.2 °F 53.6 °F 88% 29.94 in 10.0 mi West 5.8 mph - N/A   Overcast
8:35 AM 57.2 °F 51.8 °F 82% 29.94 in 10.0 mi Calm Calm - N/A   Overcast
8:55 AM 57.2 °F 51.8 °F 82% 29.94 in 10.0 mi SW 4.6 mph - N/A   Overcast
9:15 AM 59.0 °F 51.8 °F 77% 29.94 in 10.0 mi Calm Calm - N/A   Overcast
9:35 AM 59.0 °F 53.6 °F 82% 29.94 in 10.0 mi North 5.8 mph - N/A   Overcast
9:55 AM 60.8 °F 53.6 °F 77% 29.95 in 10.0 mi Calm Calm - N/A   Mostly Cloudy
10:15 AM 62.6 °F 53.6 °F 72% 29.94 in 10.0 mi SSW 6.9 mph 16.1 mph N/A   Partly Cloudy
10:35 AM 64.4 °F 53.6 °F 68% 29.94 in 10.0 mi NW 10.4 mph - N/A   Clear
10:55 AM 64.4 °F 53.6 °F 68% 29.95 in 10.0 mi NNW 8.1 mph 17.3 mph N/A   Clear
11:15 AM 66.2 °F 53.6 °F 64% 29.95 in 10.0 mi NW 11.5 mph - N/A   Clear
11:35 AM 66.2 °F 53.6 °F 64% 29.95 in 10.0 mi ESE 5.8 mph 16.1 mph N/A   Clear
11:55 AM 66.2 °F 53.6 °F 64% 29.95 in 10.0 mi WSW 9.2 mph - N/A   Clear
12:15 PM 66.2 °F 53.6 °F 64% 29.95 in 10.0 mi WSW 12.7 mph - N/A   Clear
12:35 PM 68.0 °F 53.6 °F 60% 29.95 in 10.0 mi WSW 12.7 mph - N/A   Clear
12:55 PM 66.2 °F 53.6 °F 64% 29.95 in 10.0 mi West 11.5 mph - N/A   Clear
1:15 PM 66.2 °F 51.8 °F 60% 29.95 in 10.0 mi WSW 11.5 mph 17.3 mph N/A   Clear
1:35 PM 66.2 °F 51.8 °F 60% 29.95 in 10.0 mi WSW 13.8 mph 20.7 mph N/A   Clear
1:55 PM 68.0 °F 51.8 °F 56% 29.95 in 10.0 mi West 12.7 mph 17.3 mph N/A   Clear
2:15 PM 68.0 °F 51.8 °F 56% 29.95 in 10.0 mi West 11.5 mph - N/A   Clear
2:35 PM 68.0 °F 51.8 °F 56% 29.95 in 10.0 mi WSW 15.0 mph 19.6 mph N/A   Clear
2:55 PM 68.0 °F 53.6 °F 60% 29.95 in 10.0 mi WSW 15.0 mph - N/A   Clear
3:15 PM 66.2 °F 51.8 °F 60% 29.95 in 10.0 mi WSW 11.5 mph 19.6 mph N/A   Clear
3:35 PM 66.2 °F 51.8 °F 60% 29.95 in 10.0 mi West 12.7 mph - N/A   Clear
3:55 PM 68.0 °F 51.8 °F 56% 29.94 in 10.0 mi WNW 6.9 mph - N/A   Clear
4:15 PM 68.0 °F 51.8 °F 56% 29.94 in 10.0 mi WSW 13.8 mph 17.3 mph N/A   Clear
4:35 PM 66.2 °F 51.8 °F 60% 29.94 in 10.0 mi WSW 11.5 mph 18.4 mph N/A   Clear
4:55 PM 66.2 °F 51.8 °F 60% 29.93 in 10.0 mi WSW 11.5 mph - N/A   Clear
5:15 PM 66.2 °F 51.8 °F 60% 29.93 in 10.0 mi WSW 11.5 mph - N/A   Clear
5:35 PM 66.2 °F 50.0 °F 56% 29.93 in 10.0 mi WSW 6.9 mph - N/A   Clear
5:55 PM 66.2 °F 50.0 °F 56% 29.93 in 10.0 mi WSW 11.5 mph - N/A   Clear
6:15 PM 66.2 °F 50.0 °F 56% 29.93 in 10.0 mi NNW 4.6 mph - N/A   Clear
6:35 PM 64.4 °F 50.0 °F 59% 29.93 in 10.0 mi NNE 4.6 mph - N/A   Clear
6:55 PM 64.4 °F 50.0 °F 59% 29.93 in 10.0 mi SW 6.9 mph - N/A   Clear
7:15 PM 62.6 °F 51.8 °F 68% 29.93 in 10.0 mi NNW 11.5 mph - N/A   Clear
7:35 PM 59.0 °F 51.8 °F 77% 29.93 in 10.0 mi North 10.4 mph - N/A   Clear
7:55 PM 57.2 °F 50.0 °F 77% 29.94 in 10.0 mi North 6.9 mph - N/A   Clear
8:15 PM 57.2 °F 50.0 °F 77% 29.94 in 10.0 mi South 3.5 mph - N/A   Clear
8:35 PM 55.4 °F 50.0 °F 82% 29.94 in 10.0 mi North 8.1 mph - N/A   Clear
8:55 PM 55.4 °F 50.0 °F 82% 29.95 in 10.0 mi East 3.5 mph - N/A   Clear
9:15 PM 55.4 °F 50.0 °F 82% 29.95 in 10.0 mi ENE 3.5 mph - N/A   Clear
9:35 PM 55.4 °F 50.0 °F 82% 29.96 in 10.0 mi ESE 4.6 mph - N/A   Clear
9:55 PM 55.4 °F 51.8 °F 88% 29.97 in 10.0 mi ESE 5.8 mph - N/A   Clear
10:15 PM 53.6 °F 51.8 °F 94% 29.97 in 10.0 mi East 3.5 mph - N/A   Clear
10:35 PM 55.4 °F 51.8 °F 88% 29.98 in 10.0 mi SE 3.5 mph - N/A   Partly Cloudy
10:55 PM 53.6 °F 51.8 °F 94% 29.98 in 10.0 mi Calm Calm - N/A   Partly Cloudy
11:15 PM 53.6 °F 50.0 °F 88% 29.98 in 10.0 mi Calm Calm - N/A   Partly Cloudy
11:35 PM 53.6 °F 51.8 °F 94% 29.99 in 10.0 mi North 3.5 mph - N/A   Mostly Cloudy
11:55 PM 55.4 °F 51.8 °F 88% 29.99 in 10.0 mi North 3.5 mph - N/A   Unknown